CW9319 Weather Reports


time (UTC)temp
C
wind
direction
speed
KPH
gust
KPH
rain 1hr
cm
rain 24hr
cm
rain mn
cm
humidity
%
barometer
mb
20260906131637 22 52 1.6 8.0 0.00 0.00 0.00 93 1014.3
20260906131143 22 69 1.6 8.0 0.00 0.00 0.00 92 1014.3
20260906130650 22 55 1.6 4.8 0.00 0.00 0.00 93 1014.3
20260906130142 22 211 0.0 6.4 0.00 0.00 0.00 93 1014.3
20260906125648 22 157 3.2 6.4 0.00 0.00 0.00 93 1014.3
20260906125215 22 12 1.6 6.4 0.00 0.00 0.00 93 1014.0
20260906124643 22 96 1.6 8.0 0.00 0.00 0.00 93 1014.0
20260906124148 22 18 3.2 9.7 0.00 0.00 0.00 93 1014.0
20260906123702 22 334 0.0 9.7 0.00 0.00 0.00 93 1013.4
20260906123212 22 79 3.2 6.4 0.00 0.00 0.00 93 1013.4
20260906122655 22 331 0.0 9.7 0.00 0.00 0.00 93 1013.4
20260906122141 22 338 1.6 9.7 0.00 0.00 0.00 94 1013.4
20260906121636 22 115 1.6 6.4 0.00 0.00 0.00 94 1013.4
20260906121144 22 78 3.2 6.4 0.00 0.00 0.00 94 1013.4
20260906120651 22 249 0.0 3.2 0.00 0.00 0.00 94 1013.2
20260906120136 21 249 1.6 3.2 0.00 0.00 0.00 94 1013.2
20260906115644 21 249 1.6 9.7 0.00 0.00 0.00 94 1013.2
20260906115215 21 17 1.6 9.7 0.00 0.00 0.00 94 1013.1
20260906114704 21 48 1.6 9.7 0.00 0.00 0.00 93 1013.1
20260906114151 21 338 0.0 4.8 0.00 0.00 0.00 93 1013.1
20260906113651 21 338 3.2 11.3 0.00 0.00 0.00 93 1012.2
20260906113155 21 355 1.6 11.3 0.00 0.00 0.00 93 1012.2
20260906112643 22 31 3.2 9.7 0.00 0.00 0.00 93 1012.2
20260906112147 22 338 3.2 6.4 0.00 0.00 0.00 93 1012.4
20260906111652 22 360 0.0 6.4 0.00 0.00 0.00 93 1012.4
20260906111137 22 9 1.6 6.4 0.00 0.00 0.00 93 1012.4
20260906110644 22 9 1.6 6.4 0.00 0.00 0.00 93 1012.5
20260906110151 22 23 3.2 8.0 0.00 0.00 0.00 93 1012.5
20260906105716 22 355 0.0 8.0 0.00 0.00 0.00 93 1012.5
20260906105145 22 28 1.6 6.4 0.00 0.00 0.00 93 1012.1
20260906104649 22 351 3.2 4.8 0.00 0.00 0.00 93 1012.1
20260906104138 22 360 1.6 4.8 0.00 0.00 0.00 93 1012.1
20260906103645 22 345 1.6 4.8 0.00 0.00 0.00 93 1012.0
20260906103216 22 341 1.6 6.4 0.00 0.00 0.00 93 1012.0
20260906102646 22 355 0.0 6.4 0.00 0.00 0.00 93 1012.0
20260906102146 22 328 1.6 4.8 0.00 0.00 0.00 93 1012.1
20260906101636 22 113 3.2 6.4 0.00 0.00 0.00 93 1012.1
20260906101146 22 297 1.6 6.4 0.00 0.00 0.00 93 1012.1
20260906100638 21 346 0.0 8.0 0.00 0.00 0.00 93 1011.9
20260906100207 21 11 3.2 8.0 0.00 0.00 0.00 93 1011.9
20260906095639 21 10 1.6 8.0 0.00 0.00 0.00 93 1011.9
20260906095143 21 351 3.2 6.4 0.00 0.00 0.00 93 1012.0
20260906094644 21 351 3.2 6.4 0.00 0.00 0.00 93 1012.0
20260906094212 21 355 1.6 6.4 0.00 0.00 0.00 93 1012.0
20260906093633 21 342 3.2 6.4 0.00 0.00 0.00 93 1011.8
20260906093144 21 14 3.2 9.7 0.00 0.00 0.00 93 1011.8
20260906092648 21 30 3.2 9.7 0.00 0.00 0.00 93 1011.8
20260906092137 21 350 3.2 4.8 0.00 0.00 0.00 93 1011.7
20260906091645 21 360 1.6 8.0 0.00 0.00 0.00 93 1011.7
20260906091136 21 5 4.8 8.0 0.00 0.00 0.00 93 1011.7
20260906090641 21 325 1.6 6.4 0.00 0.00 0.00 93 1011.8
20260906090149 21 19 3.2 6.4 0.00 0.00 0.00 93 1011.8
20260906085634 21 355 0.0 4.8 0.00 0.00 0.00 93 1011.8
20260906085144 21 355 1.6 4.8 0.00 0.00 0.00 93 1012.1
20260906084655 21 355 1.6 9.7 0.00 0.00 0.00 93 1012.1
20260906084141 21 355 1.6 9.7 0.00 0.00 0.00 93 1012.1
20260906083649 21 5 3.2 6.4 0.00 0.00 0.00 93 1012.2
20260906083151 21 5 3.2 11.3 0.00 0.00 0.00 93 1012.2
20260906082703 21 43 1.6 11.3 0.00 0.00 0.00 93 1012.2
20260906082209 21 5 3.2 11.3 0.00 0.00 0.00 93 1012.1
20260906081640 21 355 3.2 8.0 0.00 0.00 0.00 93 1012.1
20260906081150 21 65 1.6 8.0 0.00 0.00 0.00 93 1012.1
20260906080655 21 5 4.8 8.0 0.00 0.00 0.00 93 1012.1
20260906080142 21 24 1.6 9.7 0.00 0.00 0.00 93 1012.1
20260906075644 21 11 1.6 9.7 0.00 0.00 0.00 93 1012.1
20260906075134 21 360 3.2 6.4 0.00 0.00 0.00 93 1012.1
20260906074644 21 345 1.6 8.0 0.00 0.00 0.00 93 1012.1
20260906074151 21 345 1.6 8.0 0.00 0.00 0.00 93 1012.1
20260906073705 21 355 1.6 8.0 0.00 0.00 0.00 93 1012.1
20260906073149 21 355 4.8 8.0 0.00 0.00 0.00 93 1012.1
20260906072638 21 348 0.0 9.7 0.00 0.00 0.00 93 1012.1
20260906072143 21 14 0.0 9.7 0.00 0.00 0.00 92 1012.2
20260906071632 21 355 3.2 6.4 0.00 0.00 0.00 92 1012.2
20260906071141 21 355 1.6 9.7 0.00 0.00 0.00 92 1012.2
20260906070651 21 82 1.6 9.7 0.00 0.00 0.00 92 1012.4
20260906070137 21 323 0.0 8.0 0.00 0.00 0.00 92 1012.4
20260906065645 21 81 1.6 8.0 0.00 0.00 0.00 92 1012.4
20260906065212 21 347 0.0 6.4 0.00 0.00 0.00 92 1012.4
20260906064715 21 347 1.6 6.4 0.00 0.00 0.00 92 1012.4
20260906064141 21 328 3.2 6.4 0.00 0.00 0.00 92 1012.4
20260906063646 21 11 1.6 8.0 0.00 0.00 0.00 92 1012.3
20260906063150 21 355 3.2 8.0 0.00 0.00 0.00 92 1012.3
20260906062644 21 15 0.0 6.4 0.00 0.00 0.00 92 1012.3
20260906062150 21 342 1.6 11.3 0.00 0.00 0.00 92 1012.3
20260906061635 21 25 3.2 11.3 0.00 0.00 0.00 91 1012.3
20260906061203 21 355 1.6 16.1 0.00 0.00 0.00 92 1012.3
20260906060709 21 23 3.2 16.1 0.00 0.00 0.00 92 1012.4
20260906060140 21 78 6.4 11.3 0.00 0.00 0.00 92 1012.4
20260906055648 21 26 3.2 9.7 0.00 0.00 0.00 92 1012.4
20260906055155 21 128 1.6 14.5 0.00 0.00 0.00 92 1012.5
20260906054640 22 15 3.2 14.5 0.00 0.00 0.00 92 1012.5
20260906054148 22 331 1.6 8.0 0.00 0.00 0.00 92 1012.5
20260906053636 22 323 1.6 8.0 0.00 0.00 0.00 92 1012.3
20260906053137 22 348 3.2 8.0 0.00 0.00 0.00 92 1012.3
20260906052652 22 339 1.6 6.4 0.00 0.00 0.00 92 1012.3
20260906052139 22 54 3.2 8.0 0.00 0.00 0.00 92 1012.1
20260906051644 22 130 4.8 9.7 0.00 0.00 0.00 92 1012.1
20260906051149 22 315 3.2 9.7 0.00 0.00 0.00 92 1012.1
20260906050650 22 344 3.2 8.0 0.00 0.00 0.00 92 1011.9
20260906050136 22 348 3.2 6.4 0.00 0.00 0.00 91 1011.9
20260906045641 22 335 4.8 9.7 0.00 0.00 0.00 91 1011.9
20260906045152 22 360 3.2 8.0 0.00 0.00 0.00 91 1011.6
20260906044640 22 41 3.2 8.0 0.00 0.00 0.00 91 1011.6
20260906044207 22 42 0.0 6.4 0.00 0.00 0.00 91 1011.6
20260906043649 23 360 3.2 6.4 0.00 0.00 0.00 90 1011.5
20260906043143 23 336 1.6 9.7 0.00 0.00 0.00 90 1011.5
20260906042650 23 9 0.0 9.7 0.00 0.00 0.00 90 1011.5
20260906042140 23 277 3.2 8.0 0.00 0.00 0.00 90 1011.2
20260906041647 23 94 3.2 9.7 0.00 0.00 0.00 90 1011.2
20260906041136 23 100 3.2 9.7 0.00 0.00 0.00 89 1011.2
20260906040644 23 96 4.8 9.7 0.00 0.00 0.00 89 1011.0
20260906040135 23 29 3.2 9.7 0.00 0.00 0.00 89 1011.1
20260906035644 23 46 1.6 11.3 0.00 0.00 0.00 89 1011.1
20260906035152 23 15 3.2 11.3 0.00 0.00 0.00 89 1011.1
20260906034640 23 170 1.6 6.4 0.00 0.00 0.00 89 1011.1
20260906034151 23 327 1.6 8.0 0.00 0.00 0.00 89 1011.1
20260906033659 23 151 3.2 8.0 0.00 0.00 0.00 89 1010.9
20260906033145 23 138 1.6 6.4 0.00 0.00 0.00 89 1010.9
20260906032653 23 346 3.2 6.4 0.00 0.00 0.00 89 1010.9
20260906032207 23 340 0.0 4.8 0.00 0.00 0.00 89 1010.8
20260906031653 24 319 1.6 4.8 0.00 0.00 0.00 89 1010.9
20260906031138 24 5 1.6 3.2 0.00 0.00 0.00 89 1010.9
20260906030646 24 5 0.0 3.2 0.00 0.00 0.00 88 1010.7
20260906030154 24 5 1.6 6.4 0.00 0.00 0.00 88 1010.7
20260906025644 24 5 3.2 6.4 0.00 0.00 0.00 88 1010.7
20260906025149 24 355 1.6 6.4 0.00 0.00 0.00 88 1010.8
20260906024640 25 355 1.6 6.4 0.00 0.00 0.00 87 1010.8
20260906024147 25 355 1.6 4.8 0.00 0.00 0.00 87 1010.8
20260906023710 25 355 0.0 6.4 0.00 0.00 0.00 87 1010.7
20260906023140 25 63 1.6 6.4 0.00 0.00 0.00 86 1010.7
20260906022645 25 360 1.6 6.4 0.00 0.00 0.00 86 1010.7
20260906022135 25 139 1.6 6.4 0.00 0.00 0.00 86 1010.4
20260906021643 25 350 1.6 9.7 0.00 0.00 0.00 86 1010.5
20260906021151 25 350 1.6 9.7 0.00 0.00 0.00 86 1010.5
20260906020704 25 16 3.2 9.7 0.00 0.00 0.00 86 1010.5
20260906020206 25 18 4.8 9.7 0.00 0.00 0.00 85 1010.5
20260906015639 25 308 1.6 11.3 0.00 0.00 0.00 85 1010.5
20260906015137 26 42 3.2 11.3 0.00 0.00 0.00 85 1010.3
20260906014648 26 285 1.6 9.7 0.00 0.00 0.00 85 1010.3
20260906014204 26 255 1.6 8.0 0.00 0.00 0.00 84 1010.3
20260906013635 26 335 3.2 8.0 0.00 0.00 0.00 84 1010.3
20260906013149 26 205 1.6 19.3 0.00 0.00 0.00 84 1010.3
20260906012702 26 11 3.2 19.3 0.00 0.00 0.00 83 1010.3
20260906012146 26 350 1.6 16.1 0.00 0.00 0.00 83 1009.9
20260906011700 26 313 1.6 16.1 0.00 0.00 0.00 83 1009.9
20260906011143 27 9 3.2 17.7 0.00 0.00 0.00 83 1010.0
20260906010634 27 22 6.4 17.7 0.00 0.00 0.00 82 1009.8
20260906010211 27 360 4.8 17.7 0.00 0.00 0.00 82 1009.8
20260906005639 27 360 3.2 8.0 0.00 0.00 0.00 82 1009.8
20260906005152 27 254 1.6 17.7 0.00 0.00 0.00 81 1009.4
20260906004647 27 317 6.4 17.7 0.00 0.00 0.00 81 1009.4
20260906004151 27 327 3.2 17.7 0.00 0.00 0.00 80 1009.4
20260906003641 28 17 6.4 11.3 0.00 0.00 0.00 80 1009.5
20260906003148 28 67 3.2 8.0 0.00 0.00 0.00 80 1009.5
20260906002634 28 342 3.2 12.9 0.00 0.00 0.00 80 1009.5
20260906002144 28 5 4.8 14.5 0.00 0.00 0.00 80 1009.3
20260906001651 28 19 4.8 14.5 0.00 0.00 0.00 80 1009.4
20260906001142 28 350 1.6 11.3 0.00 0.00 0.00 79 1009.4
20260906000653 28 14 3.2 16.1 0.00 0.00 0.00 79 1009.4
20260906000153 29 48 6.4 16.1 0.00 0.00 0.00 78 1009.4
20260905235639 29 66 4.8 16.1 0.00 0.00 0.00 78 1009.4
20260905235147 30 27 3.2 11.3 0.00 0.00 0.00 78 1009.3
20260905234655 30 44 4.8 11.3 0.00 0.00 0.00 78 1009.3
20260905234140 30 19 6.4 11.3 0.00 0.00 0.00 77 1009.3
20260905233648 30 325 3.2 8.0 0.00 0.00 0.00 77 1008.9
20260905233204 31 341 4.8 14.5 0.00 0.00 0.00 76 1008.9
20260905232647 31 43 6.4 14.5 0.00 0.00 0.00 75 1008.9
20260905232155 31 346 6.4 12.9 0.00 0.00 0.00 75 1008.8
20260905231640 31 5 3.2 12.9 0.00 0.00 0.00 74 1008.8
20260905231148 32 316 6.4 9.7 0.00 0.00 0.00 73 1008.8
20260905230652 32 5 3.2 9.7 0.00 0.00 0.00 72 1008.9
20260905230141 32 52 3.2 12.9 0.00 0.00 0.00 71 1008.9
20260905225717 32 332 4.8 12.9 0.00 0.00 0.00 71 1008.9
20260905225143 32 355 3.2 8.0 0.00 0.00 0.00 72 1008.8
20260905224647 32 340 1.6 9.7 0.00 0.00 0.00 71 1008.8
20260905224203 32 10 4.8 9.7 0.00 0.00 0.00 71 1008.8
20260905223636 32 49 6.4 12.9 0.00 0.00 0.00 70 1008.7
20260905223147 32 45 6.4 12.9 0.00 0.00 0.00 70 1008.7
20260905222636 33 355 1.6 14.5 0.00 0.00 0.00 70 1008.7
20260905222144 33 355 0.0 14.5 0.00 0.00 0.00 70 1008.8
20260905221649 33 355 3.2 8.0 0.00 0.00 0.00 69 1008.8
20260905221137 33 19 3.2 6.4 0.00 0.00 0.00 69 1008.8
20260905220703 33 338 3.2 8.0 0.00 0.00 0.00 68 1008.8
20260905220146 33 5 1.6 8.0 0.00 0.00 0.00 69 1008.8
20260905215641 33 10 1.6 9.7 0.00 0.00 0.00 69 1008.8
20260905215148 33 5 3.2 9.7 0.00 0.00 0.00 69 1008.8
20260905214636 33 28 1.6 8.0 0.00 0.00 0.00 68 1008.8
20260905214141 33 360 0.0 8.0 0.00 0.00 0.00 69 1008.8
20260905213654 33 26 0.0 6.4 0.00 0.00 0.00 70 1008.7
20260905213141 33 355 1.6 8.0 0.00 0.00 0.00 70 1008.7
20260905212646 33 36 3.2 14.5 0.00 0.00 0.00 68 1008.7
20260905212149 33 340 6.4 14.5 0.00 0.00 0.00 68 1008.7
20260905211642 33 46 3.2 6.4 0.00 0.00 0.00 70 1008.7
20260905211152 33 12 1.6 8.0 0.00 0.00 0.00 71 1008.7
20260905210642 33 17 1.6 11.3 0.00 0.00 0.00 71 1008.8
20260905210216 33 360 4.8 11.3 0.00 0.00 0.00 71 1008.8
20260905205652 33 38 1.6 8.0 0.00 0.00 0.00 71 1008.8
20260905205153 33 350 1.6 4.8 0.00 0.00 0.00 74 1009.0
20260905204638 32 32 0.0 3.2 0.00 0.00 0.00 73 1009.0
20260905204149 32 345 0.0 4.8 0.00 0.00 0.00 75 1009.0
20260905203700 32 345 0.0 6.4 0.00 0.00 0.00 73 1009.1
20260905203146 32 360 3.2 8.0 0.00 0.00 0.00 72 1009.2
20260905202700 33 348 1.6 8.0 0.00 0.00 0.00 71 1009.2
20260905202208 33 5 1.6 6.4 0.00 0.00 0.00 71 1009.1
20260905201635 33 300 3.2 6.4 0.00 0.00 0.00 70 1009.1
20260905201145 33 5 0.0 9.7 0.00 0.00 0.00 69 1009.2
20260905200715 33 13 4.8 9.7 0.00 0.00 0.00 68 1009.2
20260905200142 33 29 1.6 17.7 0.00 0.00 0.00 69 1009.2
20260905195716 33 342 3.2 17.7 0.00 0.00 0.00 69 1009.2
20260905195140 33 5 1.6 9.7 0.00 0.00 0.00 70 1009.2
20260905194643 33 341 3.2 14.5 0.00 0.00 0.00 68 1009.2
20260905194146 33 51 3.2 14.5 0.00 0.00 0.00 68 1009.2
20260905193653 33 30 3.2 9.7 0.00 0.00 0.00 68 1009.2
20260905193143 33 355 3.2 9.7 0.00 0.00 0.00 68 1009.2
20260905192652 33 355 1.6 11.3 0.00 0.00 0.00 69 1009.2
20260905192141 33 30 6.4 11.3 0.00 0.00 0.00 69 1009.4
20260905191635 33 343 3.2 9.7 0.00 0.00 0.00 72 1009.3
20260905191144 32 5 3.2 9.7 0.00 0.00 0.00 72 1009.3
20260905190647 32 355 3.2 9.7 0.00 0.00 0.00 70 1009.3
20260905190142 33 11 4.8 9.7 0.00 0.00 0.00 69 1009.3
20260905185710 33 336 1.6 8.0 0.00 0.00 0.00 68 1009.4
20260905185203 34 9 1.6 9.7 0.00 0.00 0.00 68 1009.5
20260905184652 34 19 1.6 9.7 0.00 0.00 0.00 68 1009.5
20260905184146 34 340 6.4 9.7 0.00 0.00 0.00 68 1009.5
20260905183640 34 19 3.2 11.3 0.00 0.00 0.00 67 1009.7
20260905183148 34 265 1.6 11.3 0.00 0.00 0.00 69 1009.7
20260905182649 34 32 3.2 9.7 0.00 0.00 0.00 69 1009.7
20260905182142 34 123 4.8 9.7 0.00 0.00 0.00 68 1009.8
20260905181715 33 32 1.6 8.0 0.00 0.00 0.00 70 1009.8
20260905181144 33 39 3.2 9.7 0.00 0.00 0.00 69 1009.8
20260905180715 33 360 4.8 11.3 0.00 0.00 0.00 69 1009.9
20260905180144 33 331 4.8 11.3 0.00 0.00 0.00 68 1009.9
20260905175636 33 331 6.4 11.3 0.00 0.00 0.00 67 1009.9
20260905175203 34 355 1.6 9.7 0.00 0.00 0.00 68 1010.0
20260905174646 33 5 3.2 9.7 0.00 0.00 0.00 68 1009.9
20260905174153 33 335 3.2 8.0 0.00 0.00 0.00 68 1009.9
20260905173638 33 332 1.6 6.4 0.00 0.00 0.00 68 1010.0
20260905173144 33 48 3.2 9.7 0.00 0.00 0.00 68 1010.0
20260905172636 33 37 3.2 9.7 0.00 0.00 0.00 68 1010.0
20260905172209 33 355 3.2 9.7 0.00 0.00 0.00 70 1010.0
20260905171636 33 325 3.2 6.4 0.00 0.00 0.00 69 1010.0
20260905171147 33 41 3.2 6.4 0.00 0.00 0.00 70 1010.0
20260905170642 33 346 0.0 8.0 0.00 0.00 0.00 72 1010.3
20260905170148 33 336 4.8 8.0 0.00 0.00 0.00 71 1010.3
20260905165640 33 34 1.6 6.4 0.00 0.00 0.00 72 1010.3
20260905165149 32 320 0.0 8.0 0.00 0.00 0.00 72 1010.4
20260905164654 32 69 0.0 9.7 0.00 0.00 0.00 72 1010.4
20260905164139 32 5 3.2 9.7 0.00 0.00 0.00 72 1010.4
20260905163640 32 346 3.2 9.7 0.00 0.00 0.00 72 1010.4
20260905163138 32 17 1.6 9.7 0.00 0.00 0.00 72 1010.4
20260905162706 32 5 3.2 9.7 0.00 0.00 0.00 73 1010.4
20260905162140 32 5 6.4 14.5 0.00 0.00 0.00 72 1010.4
20260905161648 32 29 4.8 16.1 0.00 0.00 0.00 71 1010.4
20260905161152 32 350 6.4 16.1 0.00 0.00 0.00 70 1010.4
20260905160643 32 335 3.2 11.3 0.00 0.00 0.00 70 1010.4
20260905160151 32 360 4.8 8.0 0.00 0.00 0.00 69 1010.4
20260905155655 32 181 1.6 6.4 0.00 0.00 0.00 71 1010.4
20260905155140 32 343 3.2 6.4 0.00 0.00 0.00 72 1010.1
20260905154647 32 114 3.2 6.4 0.00 0.00 0.00 71 1010.1
20260905154136 32 13 1.6 6.4 0.00 0.00 0.00 72 1010.1
20260905153640 32 355 3.2 6.4 0.00 0.00 0.00 70 1009.9
20260905153149 32 351 3.2 8.0 0.00 0.00 0.00 71 1009.9
20260905152637 32 14 1.6 8.0 0.00 0.00 0.00 70 1009.9
20260905152150 32 355 3.2 6.4 0.00 0.00 0.00 70 1010.1
20260905151659 32 24 0.0 6.4 0.00 0.00 0.00 72 1010.1
20260905151146 32 50 1.6 9.7 0.00 0.00 0.00 72 1010.1
20260905150638 32 311 3.2 9.7 0.00 0.00 0.00 71 1010.0
20260905150143 32 348 1.6 8.0 0.00 0.00 0.00 71 1010.0
20260905145711 31 345 0.0 0.0 0.00 0.00 0.00 72 1009.9
20260905145135 31 61 0.0 8.0 0.00 0.00 0.00 73 1009.9
20260905144646 31 314 1.6 8.0 0.00 0.00 0.00 72 1009.9
20260905144148 31 344 1.6 3.2 0.00 0.00 0.00 72 1009.9
20260905143656 31 9 1.6 4.8 0.00 0.00 0.00 74 1009.8
20260905143145 31 272 0.0 4.8 0.00 0.00 0.00 74 1009.8
20260905142714 31 211 1.6 3.2 0.00 0.00 0.00 76 1009.8
20260905142141 31 211 0.0 3.2 0.00 0.00 0.00 75 1009.6
20260905141645 30 211 1.6 3.2 0.00 0.00 0.00 74 1009.6
20260905141135 30 211 0.0 3.2 0.00 0.00 0.00 75 1009.6
20260905140708 30 211 1.6 1.6 0.00 0.00 0.00 75 1009.8
20260905140136 30 211 0.0 3.2 0.00 0.00 0.00 77 1009.8
20260905135648 29 211 0.0 3.2 0.00 0.00 0.00 79 1009.8
20260905135153 29 211 0.0 4.8 0.00 0.00 0.00 80 1009.6
20260905134642 28 211 1.6 4.8 0.00 0.00 0.00 80 1009.5
20260905134149 28 211 3.2 4.8 0.00 0.00 0.00 80 1009.5
20260905133635 28 211 1.6 4.8 0.00 0.00 0.00 81 1009.7
20260905133137 28 211 1.6 6.4 0.00 0.00 0.00 82 1009.7
20260905132706 28 211 0.0 6.4 0.00 0.00 0.00 83 1009.7
20260905132149 27 211 1.6 4.8 0.00 0.00 0.00 84 1009.9